When you browse on this site, cookies collect data to enhance your experience and personalize the content and advertising you see.
Visit our Privacy Policy to learn more. By continuing to use the site, you agree to this use of cookies and data.
  • In Österreich
  • Länderverzeichnis
  • Für 7 Tage
  • Wassertemperatur
  • Wetterkarte
  • News
  • Widgets
  • user-avatar
    Anmelden

    Stündliche Wetter Babruisk

    Heute, 20 August, Dienstag

    Zeit Temperatur Niederschläge Wind Luftdruck Luftfeuchtigkeit
    00:00 +20°C° 0 mm 2 m/S 750 mmHg 82%
    01:00 +19°C° 0 mm 2 m/S 750 mmHg 83%
    02:00 +19°C° 0 mm 2 m/S 751 mmHg 84%
    03:00 +19°C° 0.6 mm 2 m/S 751 mmHg 87%
    04:00 +19°C° 0.6 mm 1 m/S 751 mmHg 90%
    05:00 +17°C° 0.6 mm 0 m/S 751 mmHg 93%
    06:00 +20°C° 0 mm 1 m/S 751 mmHg 89%
    07:00 +21°C° 0 mm 2 m/S 752 mmHg 85%
    08:00 +23°C° 0 mm 2 m/S 752 mmHg 81%
    09:00 +25°C° 0 mm 2 m/S 752 mmHg 74%
    10:00 +26°C° 0 mm 2 m/S 752 mmHg 67%
    11:00 +28°C° 0 mm 2 m/S 752 mmHg 61%
    12:00 +29°C° 0 mm 2 m/S 752 mmHg 58%
    13:00 +30°C° 0 mm 2 m/S 752 mmHg 56%
    14:00 +31°C° 0 mm 2 m/S 752 mmHg 53%
    15:00 +30°C° 0.6 mm 2 m/S 752 mmHg 59%
    16:00 +29°C° 0.6 mm 2 m/S 752 mmHg 66%
    17:00 +28°C° 0.6 mm 1 m/S 752 mmHg 72%
    18:00 +26°C° 0.5 mm 1 m/S 752 mmHg 76%
    19:00 +25°C° 0.5 mm 1 m/S 752 mmHg 81%
    20:00 +23°C° 0.5 mm 1 m/S 753 mmHg 85%
    21:00 +23°C° 0.4 mm 1 m/S 753 mmHg 86%
    22:00 +22°C° 0.4 mm 1 m/S 753 mmHg 87%
    23:00 +22°C° 0.4 mm 1 m/S 753 mmHg 88%

    Morgen, 21 August, Mittwoch

    Zeit Temperatur Niederschläge Wind Luftdruck Luftfeuchtigkeit
    00:00 +21°C° 0.4 mm 1 m/S 753 mmHg 88%
    01:00 +21°C° 0.4 mm 1 m/S 753 mmHg 89%
    02:00 +21°C° 0.4 mm 1 m/S 753 mmHg 90%
    03:00 +20°C° 0.2 mm 1 m/S 753 mmHg 91%
    04:00 +20°C° 0.2 mm 1 m/S 752 mmHg 91%
    05:00 +20°C° 0.2 mm 1 m/S 752 mmHg 92%
    06:00 +20°C° 0 mm 2 m/S 752 mmHg 90%
    07:00 +21°C° 0 mm 2 m/S 752 mmHg 87%
    08:00 +23°C° 0 mm 2 m/S 752 mmHg 85%
    09:00 +25°C° 0 mm 3 m/S 752 mmHg 77%
    10:00 +27°C° 0 mm 3 m/S 752 mmHg 68%
    11:00 +29°C° 0 mm 3 m/S 752 mmHg 60%
    12:00 +29°C° 0 mm 3 m/S 752 mmHg 56%
    13:00 +30°C° 0 mm 4 m/S 752 mmHg 53%
    14:00 +32°C° 0 mm 4 m/S 752 mmHg 49%
    15:00 +30°C° 0 mm 3 m/S 751 mmHg 52%
    16:00 +30°C° 0 mm 3 m/S 751 mmHg 55%
    17:00 +30°C° 0 mm 2 m/S 751 mmHg 58%
    18:00 +28°C° 0 mm 2 m/S 751 mmHg 62%
    19:00 +26°C° 0 mm 2 m/S 751 mmHg 65%
    20:00 +24°C° 0 mm 2 m/S 751 mmHg 69%
    21:00 +23°C° 0 mm 2 m/S 751 mmHg 75%
    22:00 +21°C° 0 mm 2 m/S 751 mmHg 80%
    23:00 +20°C° 0 mm 2 m/S 752 mmHg 86%

    übermorgen, 22 August, Donnerstag

    Zeit Temperatur Niederschläge Wind Luftdruck Luftfeuchtigkeit
    00:00 +20°C° 0.2 mm 3 m/S 752 mmHg 89%
    01:00 +19°C° 0.2 mm 4 m/S 752 mmHg 91%
    02:00 +18°C° 0.2 mm 4 m/S 752 mmHg 94%
    03:00 +18°C° 0.3 mm 4 m/S 753 mmHg 94%
    04:00 +16°C° 0.3 mm 5 m/S 753 mmHg 93%
    05:00 +15°C° 0.3 mm 5 m/S 753 mmHg 93%
    06:00 +15°C° 0 mm 5 m/S 753 mmHg 92%
    07:00 +15°C° 0 mm 5 m/S 754 mmHg 91%
    08:00 +15°C° 0 mm 5 m/S 754 mmHg 89%
    09:00 +16°C° 0 mm 5 m/S 755 mmHg 85%
    10:00 +17°C° 0 mm 5 m/S 755 mmHg 80%
    11:00 +19°C° 0 mm 5 m/S 755 mmHg 75%
    12:00 +20°C° 0 mm 5 m/S 755 mmHg 71%
    13:00 +21°C° 0 mm 5 m/S 755 mmHg 66%
    14:00 +22°C° 0 mm 5 m/S 755 mmHg 61%
    15:00 +22°C° 0 mm 4 m/S 755 mmHg 62%
    16:00 +22°C° 0 mm 4 m/S 755 mmHg 64%
    17:00 +22°C° 0 mm 3 m/S 755 mmHg 65%
    18:00 +20°C° 0 mm 3 m/S 755 mmHg 71%
    19:00 +19°C° 0 mm 3 m/S 755 mmHg 77%
    20:00 +17°C° 0 mm 2 m/S 756 mmHg 84%
    21:00 +16°C° 0 mm 2 m/S 756 mmHg 85%
    22:00 +16°C° 0 mm 2 m/S 756 mmHg 86%
    23:00 +15°C° 0 mm 2 m/S 756 mmHg 88%

    23 August, Freitag

    Zeit Temperatur Niederschläge Wind Luftdruck Luftfeuchtigkeit
    00:00 +15°C° 0 mm 2 m/S 756 mmHg 88%
    01:00 +14°C° 0 mm 2 m/S 756 mmHg 89%
    02:00 +14°C° 0 mm 2 m/S 756 mmHg 90%
    03:00 +13°C° 0 mm 2 m/S 756 mmHg 90%
    04:00 +13°C° 0 mm 2 m/S 757 mmHg 90%
    05:00 +12°C° 0 mm 2 m/S 757 mmHg 90%
    06:00 +14°C° 0 mm 2 m/S 757 mmHg 84%
    07:00 +15°C° 0 mm 2 m/S 757 mmHg 78%
    08:00 +17°C° 0 mm 2 m/S 757 mmHg 72%
    09:00 +19°C° 0 mm 2 m/S 757 mmHg 66%
    10:00 +20°C° 0 mm 2 m/S 757 mmHg 59%
    11:00 +23°C° 0 mm 2 m/S 757 mmHg 53%
    12:00 +22°C° 0 mm 3 m/S 757 mmHg 51%
    13:00 +24°C° 0 mm 3 m/S 757 mmHg 49%
    14:00 +24°C° 0 mm 3 m/S 757 mmHg 46%
    15:00 +24°C° 0 mm 3 m/S 757 mmHg 50%
    16:00 +22°C° 0 mm 3 m/S 757 mmHg 53%
    17:00 +23°C° 0 mm 2 m/S 757 mmHg 56%
    18:00 +20°C° 0 mm 2 m/S 757 mmHg 63%
    19:00 +18°C° 0 mm 2 m/S 757 mmHg 70%
    20:00 +16°C° 0 mm 1 m/S 757 mmHg 77%
    21:00 +15°C° 0 mm 1 m/S 757 mmHg 79%
    22:00 +15°C° 0 mm 1 m/S 757 mmHg 81%
    23:00 +14°C° 0 mm 1 m/S 757 mmHg 84%

    24 August, Samstag

    Zeit Temperatur Niederschläge Wind Luftdruck Luftfeuchtigkeit
    00:00 +14°C° 0 mm 1 m/S 758 mmHg 85%
    01:00 +14°C° 0 mm 1 m/S 758 mmHg 86%
    02:00 +13°C° 0 mm 1 m/S 758 mmHg 87%
    03:00 +13°C° 0 mm 1 m/S 758 mmHg 88%
    04:00 +13°C° 0 mm 1 m/S 758 mmHg 88%
    05:00 +11°C° 0 mm 0 m/S 757 mmHg 89%
    06:00 +13°C° 0 mm 0 m/S 758 mmHg 83%
    07:00 +15°C° 0 mm 0 m/S 758 mmHg 77%
    08:00 +17°C° 0 mm 0 m/S 758 mmHg 71%
    09:00 +19°C° 0 mm 0 m/S 758 mmHg 65%
    10:00 +20°C° 0 mm 0 m/S 758 mmHg 59%
    11:00 +22°C° 0 mm 0 m/S 758 mmHg 53%
    12:00 +23°C° 0 mm 0 m/S 758 mmHg 50%
    13:00 +23°C° 0 mm 0 m/S 757 mmHg 47%
    14:00 +24°C° 0 mm 0 m/S 757 mmHg 44%
    15:00 +25°C° 0 mm 1 m/S 757 mmHg 46%
    16:00 +25°C° 0 mm 1 m/S 756 mmHg 48%
    17:00 +25°C° 0 mm 1 m/S 756 mmHg 50%
    18:00 +22°C° 0 mm 1 m/S 756 mmHg 56%
    19:00 +20°C° 0 mm 1 m/S 756 mmHg 62%
    20:00 +18°C° 0 mm 1 m/S 756 mmHg 67%
    21:00 +16°C° 0 mm 1 m/S 756 mmHg 70%
    22:00 +16°C° 0 mm 1 m/S 756 mmHg 72%
    23:00 +15°C° 0 mm 1 m/S 756 mmHg 75%

    25 August, Sonntag

    Zeit Temperatur Niederschläge Wind Luftdruck Luftfeuchtigkeit
    00:00 +15°C° 0 mm 1 m/S 756 mmHg 76%
    01:00 +14°C° 0 mm 1 m/S 756 mmHg 77%
    02:00 +14°C° 0 mm 1 m/S 756 mmHg 78%
    03:00 +14°C° 0 mm 1 m/S 756 mmHg 79%
    04:00 +13°C° 0 mm 1 m/S 755 mmHg 80%
    05:00 +13°C° 0 mm 1 m/S 755 mmHg 81%
    06:00 +15°C° 0 mm 1 m/S 755 mmHg 76%
    07:00 +18°C° 0 mm 1 m/S 755 mmHg 70%
    08:00 +19°C° 0 mm 1 m/S 755 mmHg 65%
    09:00 +21°C° 0 mm 1 m/S 755 mmHg 60%
    10:00 +23°C° 0 mm 1 m/S 755 mmHg 55%
    11:00 +25°C° 0 mm 1 m/S 755 mmHg 50%
    12:00 +25°C° 0 mm 1 m/S 755 mmHg 47%
    13:00 +26°C° 0 mm 2 m/S 754 mmHg 45%
    14:00 +27°C° 0 mm 2 m/S 754 mmHg 42%
    15:00 +26°C° 0 mm 1 m/S 754 mmHg 46%
    16:00 +26°C° 0 mm 1 m/S 753 mmHg 49%
    17:00 +26°C° 0 mm 1 m/S 753 mmHg 52%
    18:00 +24°C° 0 mm 1 m/S 753 mmHg 57%
    19:00 +22°C° 0 mm 1 m/S 753 mmHg 61%
    20:00 +19°C° 0 mm 1 m/S 753 mmHg 65%
    21:00 +19°C° 0 mm 1 m/S 753 mmHg 67%
    22:00 +18°C° 0 mm 1 m/S 753 mmHg 69%
    23:00 +17°C° 0 mm 2 m/S 753 mmHg 71%
    Mehr zeigen